[[{"header":{"parameterUnit":"m.s-1","parameterCategory":1,"la1":30.2991,"la2":30.254,"lo1":-89.0895,"lo2":-89.0444,"dy":0.0017,"dx":0.0017,"nx":28,"ny":28,"refTime":"2024-12-03T09:00:00:Z","depth":0,"parameterNumber":2,"parameterNumberName":"U-component_of_WINDS"},"data":[0,0,0,0,0,0,0,0,0,0,0,0,0,0,0,0,0,0,0,0,0,0,0,0,0,0,0,0,0,0,0,0,0,0,0,0,0,0,0,0,0,0,0,0,0,0,0,0,0,0,0,0,0,0,0,0,0,0,-0.4554,-0.4555,0,-0.4613,-0.4614,-0.4614,-0.4602,-0.4601,-0.46,-0.4599,-0.4661,-0.4663,-0.4666,0,0,0,0,0,0,0,0,0,0,0,0,0,-0.4431,-0.4433,-0.4554,-0.4555,-0.4555,-0.4613,-0.4614,-0.4615,-0.4602,-0.4601,-0.46,-0.4598,-0.466,-0.4663,-0.4666,0,0,0,0,0,0,0,0,0,0,0,0,0,-0.4486,-0.4434,-0.4554,-0.4556,-0.4557,-0.4613,-0.4614,-0.4615,-0.4602,-0.4601,-0.4599,-0.4598,-0.4659,-0.4663,-0.4667,-0.4724,0,0,-0.4679,-0.4681,0,0,0,0,0,0,0,0,-0.4483,-0.4491,-0.4555,-0.4556,-0.4557,-0.4598,-0.4593,-0.4652,-0.4603,-0.4585,-0.4599,-0.4597,-0.4641,-0.4647,-0.4661,-0.4727,-0.473,-0.4679,-0.4682,-0.4683,-0.4684,0,0,0,0,0,0,0,-0.4479,-0.4488,-0.4577,-0.4556,-0.4557,-0.4554,-0.456,-0.4604,-0.4622,-0.4587,-0.4586,-0.4593,-0.4642,-0.4658,-0.4663,-0.4731,-0.4679,-0.4683,-0.4685,-0.4687,-0.4846,-0.4847,0,0,0,0,0,0,-0.4475,-0.4485,-0.4575,-0.4579,-0.4515,-0.4558,-0.4565,-0.4587,-0.4621,-0.4625,-0.4594,-0.4592,-0.4652,-0.4658,-0.4665,-0.4734,-0.4683,-0.4687,-0.4689,-0.4844,-0.4846,-0.4848,0,0,0,0,0,0,-0.4472,-0.4483,-0.4573,-0.4532,-0.4543,-0.4562,-0.4587,-0.4589,-0.4605,-0.4627,-0.463,-0.4607,-0.4651,-0.4659,-0.4709,-0.4736,-0.4689,-0.4692,-0.4842,-0.4844,-0.4847,-0.4873,0,0,0,0,0,0,-0.4469,-0.4482,-0.4504,-0.4533,-0.4545,-0.4616,-0.4588,-0.4591,-0.4612,-0.4609,-0.464,-0.4644,-0.465,-0.4703,-0.4713,-0.4741,-0.4696,-0.4839,-0.4843,-0.4846,-0.487,-0.4877,-0.4882,0,0,0,0,0,-0.4464,-0.451,-0.4505,-0.4516,-0.4573,-0.4618,-0.4625,-0.4631,-0.4614,-0.4636,-0.465,-0.4643,-0.4731,-0.4709,-0.472,-0.4749,-0.4838,-0.4842,-0.4846,-0.4867,-0.4875,-0.4882,0,0,0,0,0,0,-0.4484,-0.4513,-0.4509,-0.4565,-0.4589,-0.4616,-0.4644,-0.4639,-0.4669,-0.4666,-0.4672,-0.4679,-0.473,-0.4744,-0.4718,-0.4806,-0.4782,-0.4789,-0.4795,-0.4802,-0.4808,-0.4804,-0.4699,0,0,0,0,0,-0.4495,-0.4529,-0.4552,-0.4599,-0.4612,-0.4626,-0.4645,-0.4648,-0.4673,-0.4683,-0.4701,-0.4726,-0.476,-0.4782,-0.4814,-0.4872,-0.4878,-0.4897,-0.4903,-0.4908,-0.4914,-0.4944,-0.4953,-0.4861,-0.4861,-0.4861,0,0,-0.4518,-0.4538,-0.4559,-0.4604,-0.4623,-0.4657,-0.4635,-0.4672,-0.4698,-0.4689,-0.4737,-0.4751,-0.478,-0.4834,-0.4858,-0.4847,-0.494,-0.4913,-0.4917,-0.492,-0.495,-0.4958,-0.4966,-0.4864,-0.4864,-0.4863,0,0,-0.4578,-0.4596,-0.4637,-0.4656,-0.4685,-0.4694,-0.4704,-0.4731,-0.474,-0.4788,-0.4782,-0.4812,-0.487,-0.489,-0.4908,-0.4974,-0.4968,-0.4984,-0.5016,-0.5046,-0.5053,-0.506,-0.5083,-0.5091,-0.499,-0.499,-0.499,0,-0.4603,-0.4654,-0.4659,-0.4697,-0.4717,-0.4709,-0.4751,-0.4769,-0.4807,-0.4821,-0.4808,-0.4879,-0.4898,-0.4956,-0.4972,-0.4987,-0.4998,-0.4981,-0.5052,-0.5058,-0.5064,-0.5086,-0.5095,-0.4992,-0.4992,-0.4991,-0.4991,0,-0.4684,-0.4719,-0.4749,-0.4785,-0.4808,-0.4847,-0.4858,-0.4881,-0.4881,-0.4891,-0.4939,-0.4962,-0.4997,-0.5011,-0.5012,-0.507,-0.5062,-0.505,-0.5026,-0.5075,-0.5095,-0.5104,-0.4994,-0.4994,-0.4993,-0.4993,0,0,-0.4758,-0.4795,-0.4806,-0.4822,-0.4852,-0.488,-0.4919,-0.4954,-0.4973,-0.4999,-0.5032,-0.508,-0.5069,-0.5089,-0.5092,-0.5118,-0.5168,-0.5104,-0.5104,-0.5114,-0.5232,-0.5241,-0.525,-0.5164,-0.5166,-0.5167,-0.523,0,-0.482,-0.4889,-0.4893,-0.4955,-0.4988,-0.4981,-0.5015,-0.5037,-0.5047,-0.5077,-0.5088,-0.5122,-0.5106,-0.5118,-0.5143,-0.5157,-0.5192,-0.5152,-0.5195,-0.5196,-0.5188,-0.5261,-0.5271,-0.5328,-0.5238,-0.5239,-0.524,0,-0.4902,-0.493,-0.4994,-0.5019,-0.5033,-0.5064,-0.5095,-0.5123,-0.5148,-0.5154,-0.5176,-0.5175,-0.5215,-0.5189,-0.5244,-0.5217,-0.5234,-0.5243,-0.5246,-0.525,-0.5221,-0.5267,-0.5347,-0.5355,-0.5253,-0.5252,-0.5251,0,-0.4949,-0.5003,-0.5048,-0.5062,-0.5093,-0.5114,-0.5128,-0.5151,-0.5171,-0.5199,-0.5212,-0.5244,-0.5261,-0.5286,-0.5294,-0.5274,-0.5348,-0.5323,-0.5353,-0.5353,-0.5369,-0.5368,-0.5453,-0.5381,-0.5381,-0.5381,-0.538,0,-0.5018,-0.5058,-0.507,-0.5098,-0.5142,-0.5147,-0.519,-0.5203,-0.5223,-0.5254,-0.525,-0.5278,-0.5286,-0.5316,-0.5322,-0.5366,-0.5374,-0.538,-0.5381,-0.538,-0.5379,-0.5392,-0.5388,-0.5383,-0.5382,-0.5382,-0.5382,0,-0.5079,-0.5088,-0.5137,-0.5162,-0.5169,-0.52,-0.5221,-0.5248,-0.5257,-0.5295,-0.5304,-0.5319,-0.5354,-0.5364,-0.5406,-0.541,-0.5461,-0.5459,-0.5453,-0.5453,-0.5482,-0.5479,-0.5577,-0.559,-0.551,-0.5511,-0.5512,0,-0.5122,-0.5152,-0.5179,-0.5199,-0.5213,-0.5245,-0.5265,-0.5271,-0.5292,-0.5322,-0.5345,-0.538,-0.5407,-0.5463,-0.5478,-0.5509,-0.5507,-0.554,-0.5512,-0.551,-0.5507,-0.5505,-0.5508,-0.5545,-0.5546,-0.5546,-0.5547,0,-0.5197,-0.52,-0.5229,-0.526,-0.5284,-0.5308,-0.5332,-0.5348,-0.5357,-0.5381,-0.5416,-0.5438,-0.548,-0.5514,-0.5545,-0.556,-0.5555,-0.5555,-0.5564,-0.5563,-0.5558,-0.5561,-0.5466,-0.5553,-0.5553,-0.5552,-0.5552,-0.5552,-0.525,-0.5276,-0.5299,-0.5331,-0.5349,-0.5371,-0.5397,-0.541,-0.5439,-0.5473,-0.5475,-0.5513,-0.5536,-0.5579,-0.5594,-0.5624,-0.5614,-0.5627,-0.563,-0.5633,-0.5635,-0.5554,-0.563,-0.563,-0.563,-0.5629,-0.5629,0,-0.5324,-0.5339,-0.5368,-0.5401,-0.5426,-0.5419,-0.5444,-0.5466,-0.5499,-0.5521,-0.5548,-0.5588,-0.562,-0.5637,-0.5669,-0.569,-0.5688,-0.5698,-0.5697,-0.57,-0.5642,-0.5631,-0.5699,-0.5699,-0.5699,-0.5699,-0.5699,-0.5699,-0.5366,-0.541,-0.5416,-0.5468,-0.5482,-0.5519,-0.5534,-0.5554,-0.5571,-0.5616,-0.5642,-0.5653,-0.5673,-0.5706,-0.5735,-0.5739,-0.5751,-0.5762,-0.5765,-0.5711,-0.5704,-0.5697,-0.5687,-0.5765,-0.5765,-0.582,-0.582,-0.5821]},{"header":{"parameterUnit":"m.s-1","parameterCategory":1,"la1":30.2991,"la2":30.254,"lo1":-89.0895,"lo2":-89.0444,"dy":0.0017,"dx":0.0017,"nx":28,"ny":28,"refTime":"2024-12-03T09:00:00:Z","depth":0,"parameterNumber":3,"parameterNumberName":"V-component_of_WINDS"},"data":[0,0,0,0,0,0,0,0,0,0,0,0,0,0,0,0,0,0,0,0,0,0,0,0,0,0,0,0,0,0,0,0,0,0,0,0,0,0,0,0,0,0,0,0,0,0,0,0,0,0,0,0,0,0,0,0,0,0,-3.2168,-3.2168,0,-3.2253,-3.2254,-3.2255,-3.2223,-3.2221,-3.2219,-3.2217,-3.2301,-3.2305,-3.2309,0,0,0,0,0,0,0,0,0,0,0,0,0,-3.1971,-3.1975,-3.2167,-3.2169,-3.217,-3.2253,-3.2254,-3.2256,-3.2223,-3.2221,-3.2219,-3.2216,-3.23,-3.2305,-3.2309,0,0,0,0,0,0,0,0,0,0,0,0,0,-3.2057,-3.1976,-3.2167,-3.2164,-3.2164,-3.2253,-3.2254,-3.2256,-3.2224,-3.2221,-3.2218,-3.2215,-3.2298,-3.2304,-3.231,-3.2406,0,0,-3.2329,-3.2331,0,0,0,0,0,0,0,0,-3.2052,-3.2064,-3.2163,-3.2164,-3.2165,-3.2225,-3.2216,-3.2306,-3.2225,-3.2201,-3.2217,-3.2214,-3.2278,-3.2285,-3.2308,-3.241,-3.2414,-3.2329,-3.2333,-3.2335,-3.2337,0,0,0,0,0,0,0,-3.2046,-3.206,-3.2201,-3.2165,-3.2166,-3.2156,-3.2165,-3.2233,-3.2255,-3.2203,-3.2201,-3.2212,-3.2278,-3.2302,-3.2309,-3.2415,-3.2329,-3.2334,-3.2338,-3.2341,-3.26,-3.2603,0,0,0,0,0,0,-3.204,-3.2055,-3.2199,-3.2204,-3.21,-3.2162,-3.2172,-3.2208,-3.2254,-3.2258,-3.2214,-3.221,-3.2293,-3.2302,-3.2312,-3.2427,-3.2335,-3.2341,-3.2345,-3.2596,-3.26,-3.2604,0,0,0,0,0,0,-3.2036,-3.2054,-3.2195,-3.2129,-3.2147,-3.2169,-3.221,-3.2212,-3.2236,-3.2262,-3.2266,-3.2235,-3.2291,-3.2304,-3.2383,-3.243,-3.2344,-3.2349,-3.2593,-3.2598,-3.2602,-3.2659,0,0,0,0,0,0,-3.2031,-3.2052,-3.209,-3.213,-3.215,-3.2266,-3.2212,-3.2215,-3.2247,-3.2242,-3.2283,-3.2287,-3.229,-3.2374,-3.2389,-3.2437,-3.2354,-3.2588,-3.2595,-3.26,-3.2653,-3.2665,-3.2675,0,0,0,0,0,-3.2024,-3.2102,-3.2092,-3.211,-3.2198,-3.2269,-3.228,-3.2283,-3.2251,-3.2288,-3.2305,-3.2286,-3.2422,-3.2383,-3.2399,-3.2449,-3.2585,-3.2593,-3.26,-3.2648,-3.2662,-3.2675,0,0,0,0,0,0,-3.2065,-3.2107,-3.2097,-3.219,-3.2226,-3.2263,-3.2311,-3.2299,-3.2344,-3.2337,-3.2337,-3.2347,-3.2429,-3.2447,-3.2402,-3.2544,-3.2499,-3.251,-3.2529,-3.2544,-3.2555,-3.2548,-3.2359,0,0,0,0,0,-3.2085,-3.2141,-3.2174,-3.2253,-3.2272,-3.2288,-3.2319,-3.2318,-3.2355,-3.237,-3.2393,-3.2428,-3.2479,-3.2512,-3.2561,-3.2655,-3.2663,-3.2698,-3.2709,-3.2718,-3.2727,-3.2778,-3.2793,-3.2628,-3.2628,-3.2628,0,0,-3.2127,-3.2157,-3.2191,-3.2262,-3.229,-3.2346,-3.2301,-3.2362,-3.2404,-3.2379,-3.2456,-3.2473,-3.2513,-3.26,-3.264,-3.2618,-3.2775,-3.2727,-3.2734,-3.2739,-3.2787,-3.2803,-3.2817,-3.2633,-3.2632,-3.2631,0,0,-3.2231,-3.226,-3.2329,-3.2358,-3.2402,-3.2412,-3.2429,-3.2468,-3.2479,-3.2557,-3.2539,-3.2587,-3.2675,-3.2704,-3.273,-3.2845,-3.2829,-3.2861,-3.292,-3.2969,-3.2982,-3.2994,-3.3034,-3.3049,-3.287,-3.287,-3.287,0,-3.2277,-3.2362,-3.2365,-3.2429,-3.246,-3.2441,-3.251,-3.2538,-3.2594,-3.2615,-3.259,-3.27,-3.2725,-3.2819,-3.2847,-3.2869,-3.2887,-3.2856,-3.298,-3.2992,-3.3003,-3.3041,-3.3057,-3.2874,-3.2874,-3.2873,-3.2873,0,-3.2416,-3.2476,-3.2526,-3.2582,-3.2619,-3.2685,-3.2696,-3.2733,-3.2729,-3.2742,-3.282,-3.285,-3.2904,-3.2926,-3.2922,-3.3019,-3.3004,-3.298,-3.2934,-3.3022,-3.3058,-3.3073,-3.2879,-3.2878,-3.2877,-3.2876,0,0,-3.2549,-3.2607,-3.2625,-3.265,-3.2697,-3.2742,-3.2806,-3.286,-3.2891,-3.2931,-3.2984,-3.3059,-3.3037,-3.3066,-3.3065,-3.3109,-3.3198,-3.3079,-3.308,-3.31,-3.3306,-3.3323,-3.3341,-3.3187,-3.319,-3.3192,-3.3302,0,-3.2657,-3.2771,-3.2776,-3.288,-3.2934,-3.2917,-3.2973,-3.3007,-3.302,-3.3067,-3.3081,-3.3135,-3.3102,-3.3119,-3.3162,-3.3178,-3.3239,-3.317,-3.3235,-3.3238,-3.3226,-3.336,-3.3379,-3.3481,-3.3316,-3.3319,-3.3321,0,-3.2798,-3.2844,-3.2953,-3.2992,-3.3015,-3.3065,-3.3115,-3.316,-3.3198,-3.3204,-3.3238,-3.3231,-3.3295,-3.3248,-3.3336,-3.3289,-3.3316,-3.3328,-3.3332,-3.3337,-3.3284,-3.3369,-3.3514,-3.3529,-3.3343,-3.3341,-3.334,0,-3.2883,-3.2972,-3.3049,-3.3071,-3.3118,-3.3154,-3.3175,-3.3209,-3.3242,-3.3284,-3.3305,-3.3354,-3.3381,-3.3419,-3.3425,-3.339,-3.3513,-3.3466,-3.3519,-3.3519,-3.3545,-3.3544,-3.3696,-3.3564,-3.3563,-3.3563,-3.3563,0,-3.3003,-3.3071,-3.3087,-3.3135,-3.321,-3.3214,-3.3287,-3.3305,-3.3336,-3.3386,-3.3374,-3.342,-3.3425,-3.3473,-3.3477,-3.3549,-3.3561,-3.3567,-3.3568,-3.3569,-3.3568,-3.3586,-3.3579,-3.3567,-3.3566,-3.3565,-3.3565,0,-3.3111,-3.3125,-3.3208,-3.3246,-3.3257,-3.331,-3.3342,-3.3387,-3.3399,-3.3462,-3.3477,-3.3496,-3.3551,-3.3561,-3.3625,-3.3628,-3.3714,-3.3707,-3.3702,-3.3701,-3.3753,-3.3748,-3.3923,-3.3945,-3.3798,-3.38,-3.3801,0,-3.3186,-3.3238,-3.3282,-3.3315,-3.3338,-3.3392,-3.3425,-3.343,-3.3465,-3.3511,-3.355,-3.3604,-3.3648,-3.3737,-3.3756,-3.3805,-3.3799,-3.3857,-3.3806,-3.3805,-3.3799,-3.3796,-3.3801,-3.3866,-3.3868,-3.3869,-3.387,0,-3.3318,-3.3323,-3.3372,-3.3423,-3.3463,-3.3504,-3.3542,-3.3569,-3.358,-3.3619,-3.3676,-3.371,-3.3777,-3.383,-3.3879,-3.3899,-3.3886,-3.3886,-3.3901,-3.3902,-3.3896,-3.3899,-3.3728,-3.3882,-3.3881,-3.388,-3.3879,-3.3879,-3.3412,-3.3457,-3.3495,-3.355,-3.358,-3.3616,-3.366,-3.3678,-3.3726,-3.3782,-3.3782,-3.3844,-3.3879,-3.3944,-3.3967,-3.4015,-3.3996,-3.4018,-3.4023,-3.4028,-3.4033,-3.3889,-3.4024,-3.4024,-3.4023,-3.4023,-3.4023,0,-3.3543,-3.3567,-3.3617,-3.3672,-3.3715,-3.37,-3.3742,-3.3778,-3.3834,-3.3868,-3.3912,-3.3977,-3.4029,-3.4052,-3.4103,-3.4137,-3.4132,-3.415,-3.4147,-3.4152,-3.4047,-3.4029,-3.4153,-3.4153,-3.4153,-3.4153,-3.4153,-3.4153,-3.3616,-3.3692,-3.3701,-3.3791,-3.3814,-3.3876,-3.3901,-3.3933,-3.3961,-3.4035,-3.4079,-3.4094,-3.4124,-3.4177,-3.4223,-3.4229,-3.4248,-3.4268,-3.4271,-3.4173,-3.4159,-3.4147,-3.413,-3.4272,-3.4273,-3.4371,-3.4372,-3.4373]}]]